Home   Weather   Plauen   Past weeks

Flag for Germany Past Weather in Plauen, Saxony, Germany — Yesterday and Last 2 Weeks

Now
54 °F

Clear.


Feels Like: 54 °F
Forecast: 63 / 80 °F
Wind: 2 mph from South

Location: Karlovy Vary Airport

Current Time: May 29, 2017 at 6:06:43 am

Latest Report: May 29, 2017 at 5:00 am


Visibility: 10 mi

Pressure: 30.04 "Hg

Humidity: 72%

Dew Point: 45 °F

Location of PlauenLocation

Past Weather in Plauen — Graph

°F

Plauen Temperature Yesterday

Maximum temperature yesterday: 79 °F (at 3:30 pm)
Minimum temperature yesterday: 50 °F (at 3:00 am)
Average temperature yesterday: 68 °F

High & Low Weather Summary for the Past Weeks

 TemperatureHumidityPressure
High79 °F (May 28, 3:30 pm)100% (May 14, 6:00 am)30.45 "Hg (May 14, 6:00 am)
Low36 °F (May 25, 5:00 am)28% (May 28, 4:30 pm)29.74 "Hg (May 19, 5:30 pm)
Average60 °F62%30.16 "Hg
* Reported May 14 5:00 am — May 29 5:00 am, Plauen. Weather by CustomWeather, © 2017

Note: Actual official high and low records may vary slightly from our data, if they occured in-between our weather recording intervals... More about our weather records

Advertising

Plauen Weather History for the Previous 24 Hours

Scroll right to see more
 ConditionsComfort  
Time TempWeatherWind HumidityBarometerVisibility
5:00 am
Mon, May 29
54 °FClear.2 mph72%30.04 "Hg10 mi
4:00 am52 °FClear.2 mph77%30.07 "Hg10 mi
3:00 am54 °FClear.3 mph72%30.07 "Hg10 mi
2:00 am54 °FClear.3 mph67%30.09 "Hg10 mi
1:00 am59 °FClear.2 mph55%30.09 "Hg10 mi
12:00 am61 °FClear.2 mph52%30.12 "Hg10 mi
11:00 pm
Sun, May 28
63 °FClear.2 mph52%30.12 "Hg10 mi
10:00 pm64 °FClear.5 mph49%30.12 "Hg10 mi
9:00 pm68 °FSunny.5 mph43%30.12 "Hg10 mi
8:30 pm70 °FSunny.2 mph40%30.12 "Hg10 mi
8:00 pm75 °FSunny.5 mph31%30.12 "Hg10 mi
7:30 pm77 °FSunny.6 mph30%30.12 "Hg10 mi
7:00 pm77 °FPassing clouds.7 mph30%30.12 "HgN/A
6:30 pm79 °FPassing clouds.5 mph28%30.12 "HgN/A
6:00 pm79 °FPassing clouds.6 mph30%30.12 "HgN/A
5:30 pm79 °FPassing clouds.6 mph30%30.12 "HgN/A
5:00 pm79 °FPassing clouds.8 mph30%30.15 "HgN/A
4:30 pm79 °FPassing clouds.6 mph28%30.15 "HgN/A
4:00 pm77 °FSunny.6 mph30%30.15 "Hg10 mi
3:30 pm79 °FPassing clouds.6 mph32%30.15 "HgN/A
3:00 pm77 °FPassing clouds.7 mph32%30.15 "HgN/A
2:30 pm77 °FPassing clouds.7 mph36%30.18 "HgN/A
2:00 pm77 °FPassing clouds.7 mph34%30.18 "HgN/A
1:30 pm75 °FPassing clouds.6 mph39%30.18 "HgN/A
1:00 pm75 °FPassing clouds.6 mph39%30.18 "HgN/A
12:30 pm73 °FSunny.5 mph44%30.21 "Hg10 mi
12:00 pm73 °FSunny.5 mph44%30.21 "Hg10 mi
11:30 am73 °FPassing clouds.5 mph44%30.21 "HgN/A
11:00 am72 °FPassing clouds.5 mph47%30.21 "HgN/A
10:30 am70 °FPassing clouds.3 mph53%30.21 "HgN/A
10:00 am68 °FPassing clouds.5 mph49%30.21 "HgN/A
9:30 am68 °FPassing clouds.3 mph49%30.21 "HgN/A
9:00 am64 °FPassing clouds.3 mph56%30.21 "HgN/A
8:30 am63 °FSunny.8 mph59%30.21 "Hg10 mi
8:00 am61 °FSunny.5 mph59%30.21 "Hg10 mi
7:30 am61 °FSunny.5 mph59%30.21 "Hg10 mi
7:00 am59 °FSunny.5 mph63%30.21 "Hg10 mi
6:00 am52 °FSunny.2 mph72%30.21 "Hg10 mi
Weather by CustomWeather, © 2017

See weather overviewHow to use our weather pages